Location: Tel Aviv
(32.0670°N, 34.7670°E)
Time: 02:44:12
(UTC+03:00)

Tiros 1 - Pass Details

Date: 27 January 2022
Orbit: 629 x 663 km, 48.4° (Epoch: 26 May)

Event Time Altitude Azimuth Distance (km) Brightness Sun altitude
Rises 22:36:59 0° 279° (W) 2,990 - -67.9°
Reaches altitude 10° 22:40:07 10° 300° (WNW) 2,079 - -68.4°
Maximum altitude 22:43:13 17° 340° (NNW) 1,669 - -69.0°
Drops below altitude 10° 22:46:19 10° 21° (NNE) 2,077 - -69.5°
Sets 22:49:28 0° 42° (NE) 2,987 - -70.0°
